Theta_e
356 356 357 357 356 358 359 358 355 357 357 356 357 357 357 356 356 357 359 359 359 360 361 362 363 361 361 360 360 360 358 357 357 353 351 349 343 338 339 345 348 349
356 357 357 358 358 358 360 360 357 357 357 356 356 356 356 356 357 358 359 360 360 361 361 361 362 362 361 361 360 360 359 358 357 356 353 350 348 344 339 341 346 348
357 356 357 358 358 359 361 361 359 357 357 356 355 356 357 357 359 359 359 360 360 361 360 361 362 362 361 361 361 360 360 359 357 356 355 352 350 349 345 340 341 345
357 358 357 358 359 359 360 361 361 358 356 356 356 355 357 358 359 360 360 360 361 360 360 360 361 361 361 361 361 361 360 360 358 356 356 355 352 350 349 345 341 342
358 358 358 358 359 360 360 361 361 359 357 355 355 356 356 358 359 360 360 360 360 360 360 360 360 360 361 361 361 362 361 360 358 356 356 356 354 351 350 349 346 344
358 359 359 359 360 360 360 361 360 360 359 357 356 357 358 358 358 359 360 360 360 360 360 360 360 361 361 361 361 361 361 360 359 358 357 356 356 354 351 350 348 347
358 359 359 360 360 360 361 360 360 361 361 359 358 357 359 360 360 359 360 360 360 360 361 360 361 361 361 361 361 361 362 362 360 358 357 357 356 356 353 352 351 349
359 359 359 360 361 361 361 360 359 360 360 361 360 360 360 361 361 360 359 360 360 361 361 361 361 362 362 362 362 362 362 362 362 360 358 357 357 357 355 353 352 350
360 360 360 361 361 361 361 361 360 359 359 360 361 360 361 360 361 361 360 360 360 360 361 362 362 362 363 364 363 363 363 362 362 362 360 359 358 358 357 354 352 352
360 361 360 361 362 361 362 361 360 359 359 359 360 360 361 361 359 359 359 361 361 359 360 361 363 362 363 364 364 363 363 362 362 362 361 360 359 358 358 355 353 352
361 362 361 361 362 362 361 361 360 359 358 357 359 359 360 360 360 358 358 360 361 361 360 361 361 362 363 363 364 364 363 363 362 362 361 361 360 359 358 356 355 353
361 361 361 361 361 362 362 361 360 360 358 357 357 359 359 359 360 359 357 357 359 360 361 360 360 361 362 362 362 363 363 362 362 362 361 361 360 360 359 358 357 355
361 361 361 361 361 361 361 361 360 359 358 358 357 357 358 359 359 359 359 357 357 358 360 361 361 361 361 362 362 362 362 362 362 362 361 361 361 360 359 359 358 357
362 361 360 361 361 360 360 360 359 358 357 357 357 357 357 358 359 359 359 358 358 356 357 360 361 362 361 362 362 362 362 362 362 362 362 361 361 360 360 360 359 358
362 361 361 361 361 360 359 359 358 357 356 356 358 357 357 357 358 359 359 359 359 358 357 358 360 362 362 361 362 362 361 362 361 361 362 361 362 360 360 360 360 359
362 362 361 361 361 360 360 359 358 358 356 355 356 357 357 356 356 357 359 359 359 360 360 359 359 360 361 361 361 360 361 361 361 361 361 361 361 361 361 360 360 360
363 362 362 361 362 362 361 359 359 358 357 355 356 357 358 357 356 356 357 359 359 359 360 361 361 360 360 361 361 361 361 361 361 361 362 361 361 361 361 360 360 360
364 363 362 361 361 362 362 361 359 359 358 356 355 356 358 358 358 358 357 358 360 360 360 361 361 362 361 361 361 360 361 361 361 361 361 362 362 362 361 361 360 360
366 364 363 362 361 361 362 361 360 359 358 357 356 356 357 359 360 360 359 359 361 361 361 361 361 361 361 361 361 361 360 361 359 360 361 362 362 362 362 362 361 361
366 365 364 362 362 361 361 362 361 359 358 358 358 357 358 360 361 362 362 361 360 362 362 362 361 361 361 362 361 360 361 360 360 360 360 360 361 361 362 362 361 361
367 366 365 364 363 362 362 361 361 361 359 359 359 359 358 359 361 362 364 362 362 362 362 363 363 362 362 361 362 362 361 361 361 360 359 360 360 360 360 361 360 360
367 367 365 365 364 363 363 362 362 361 360 360 359 359 359 359 359 361 362 363 363 362 361 362 363 363 363 362 362 362 362 363 362 361 360 360 359 359 359 359 360 360
368 367 366 366 366 365 364 362 362 362 361 361 359 359 359 359 359 359 360 361 363 363 362 361 362 362 363 364 363 363 364 365 363 362 361 361 360 360 359 359 359 360
368 368 368 367 367 367 365 364 362 362 362 362 360 359 359 359 360 360 359 359 361 362 363 363 362 361 362 364 365 365 366 366 364 363 362 361 361 361 361 361 360 360
368 368 369 368 368 368 366 366 365 363 363 363 362 361 360 359 359 360 360 360 360 361 362 363 363 363 362 363 365 366 367 367 366 364 363 362 363 363 362 362 362 361
370 369 369 369 369 369 369 368 366 364 364 364 364 364 361 360 360 361 361 361 361 361 362 362 363 364 364 364 364 365 366 367 366 365 363 363 363 363 363 363 362 363
Wind_Speed
36 36 35 33 33 32 31 33 34 32 31 31 31 32 32 31 29 28 28 28 28 27 25 24 24 23 22 21 20 19 20 20 19 18 16 15 14 16 17 16 14 13
37 36 35 33 33 32 31 33 35 34 32 32 31 31 31 31 29 28 28 29 28 27 26 25 25 24 24 23 23 21 21 22 20 19 19 17 16 16 17 18 18 16
38 37 36 35 34 34 32 32 34 35 34 32 32 32 31 31 30 28 27 28 29 29 27 27 26 25 25 25 25 24 23 23 22 21 20 19 19 18 17 19 19 19
39 38 38 37 36 35 33 32 33 36 36 34 33 32 31 30 29 28 28 28 30 30 29 29 28 27 26 26 26 26 24 24 23 22 22 21 20 20 19 18 19 20
41 40 39 38 37 35 34 33 33 35 36 35 34 32 32 31 30 29 29 29 30 31 30 30 29 29 28 27 27 27 27 26 25 24 25 24 23 22 21 20 20 21
41 40 39 38 37 36 36 35 34 33 34 34 33 32 31 32 31 31 31 31 32 32 31 31 30 30 30 29 29 28 28 28 27 26 27 26 25 24 23 23 22 22
41 41 39 38 37 37 36 36 34 33 33 33 33 33 32 32 33 33 33 33 33 33 33 32 32 31 31 31 31 30 30 30 29 29 29 28 27 27 26 26 25 24
41 42 40 38 38 38 37 37 36 35 34 33 34 34 34 33 33 34 34 34 34 33 33 33 33 33 32 32 32 32 31 31 30 30 31 30 28 28 29 29 27 26
41 41 41 40 39 39 39 39 38 37 35 35 35 35 35 35 34 33 34 35 36 34 34 34 34 34 33 33 33 33 33 32 31 31 31 32 31 30 30 30 29 28
39 39 40 40 40 40 40 39 38 38 37 36 36 35 35 36 36 34 34 34 36 36 35 35 35 35 35 34 34 34 34 34 33 32 32 32 33 32 31 31 31 30
39 38 39 40 40 39 39 39 38 38 38 38 37 36 35 36 36 36 35 35 36 37 37 37 36 36 36 36 36 36 36 35 34 33 33 32 33 33 33 32 32 32
40 40 39 40 41 39 38 38 37 37 38 39 38 37 36 36 36 37 37 37 37 37 38 39 38 37 37 37 37 37 36 36 35 35 34 34 33 34 34 34 34 34
42 42 41 41 41 40 39 38 38 37 37 39 39 38 37 36 36 37 38 39 40 39 38 39 39 38 38 38 38 37 37 37 36 36 35 35 35 35 35 36 36 36
43 44 43 42 42 41 40 39 39 39 38 38 39 39 38 37 36 38 39 39 40 40 40 39 38 39 38 38 38 38 37 38 37 37 36 36 36 36 36 36 37 37
42 42 43 42 41 41 41 40 39 39 39 38 38 39 40 39 37 37 38 39 39 39 40 39 38 39 39 40 39 39 38 39 39 38 37 37 36 36 36 36 37 38
41 41 41 41 41 41 42 41 40 39 39 39 38 39 40 40 39 37 37 38 38 38 39 39 39 40 41 42 42 41 40 39 38 39 39 38 37 37 37 37 38 39
41 41 40 41 41 41 42 42 41 39 39 39 39 39 39 39 39 39 37 37 38 39 39 39 40 41 42 43 44 44 43 40 39 39 39 39 38 37 37 38 38 39
41 41 41 41 41 41 42 43 42 40 39 39 39 39 38 38 39 40 39 37 38 40 40 40 41 42 43 44 45 45 44 42 40 39 38 39 39 38 38 38 37 38
41 41 40 41 42 42 42 41 41 41 40 40 40 39 39 38 39 39 39 38 37 38 40 42 42 43 44 44 45 46 46 45 42 40 38 39 39 39 39 38 37 37
40 40 40 41 42 42 41 40 40 41 41 40 39 38 38 38 38 38 39 40 39 38 40 42 42 43 44 45 46 46 46 46 45 42 39 38 39 39 39 39 38 38
40 39 39 40 40 40 39 39 40 40 40 39 38 38 39 39 38 38 39 40 40 39 38 39 42 44 44 45 46 46 46 46 46 44 40 38 38 39 39 39 40 40
40 39 39 38 38 38 38 38 38 39 39 39 37 37 37 38 38 38 38 39 40 40 38 38 40 42 44 46 46 45 45 46 46 45 42 40 39 39 39 40 40 41
40 39 38 37 37 37 38 38 39 38 38 38 37 35 35 36 38 39 38 38 38 39 40 39 38 39 41 44 45 44 44 45 45 44 43 42 41 39 38 39 40 42
39 39 38 37 37 37 38 38 38 37 36 36 36 36 35 36 36 36 37 38 38 39 40 39 38 37 36 37 39 41 43 44 44 43 43 43 41 39 39 40 41 42
38 38 38 37 37 37 37 36 36 36 35 34 35 35 34 33 33 33 34 35 37 38 38 37 35 34 33 32 32 34 38 42 43 41 41 41 40 38 39 40 41 41
37 38 37 37 36 35 34 33 33 33 32 32 32 33 32 31 30 30 31 33 34 34 34 34 33 31 30 29 27 27 31 37 41 42 40 39 37 37 38 39 40 40
Wind_Direction
198 199 199 200 201 202 201 200 202 203 203 202 202 201 202 203 201 202 205 208 210 211 210 209 209 208 207 206 208 210 211 210 211 210 211 215 211 206 204 199 198 205
201 201 201 201 202 203 203 203 202 203 204 203 202 202 203 203 202 202 205 208 211 211 210 209 211 210 208 207 207 210 212 211 212 211 211 214 215 215 213 205 202 206
201 202 203 203 203 203 204 204 203 204 205 204 203 203 202 202 202 203 205 207 210 211 210 210 211 212 212 210 209 211 212 211 212 213 212 214 216 219 219 214 210 209
202 203 204 205 205 204 204 204 203 204 205 205 205 204 204 203 203 204 205 207 211 211 211 211 212 213 214 213 212 212 213 212 211 212 213 216 218 219 220 219 215 215
202 203 205 205 205 205 204 204 204 204 205 206 205 206 206 206 205 205 206 208 211 212 211 212 212 213 214 213 213 213 213 213 212 211 213 216 218 218 219 219 217 218
204 204 205 205 205 205 205 206 205 204 204 205 205 205 207 208 208 207 207 208 211 212 211 211 212 213 213 212 213 215 214 214 213 212 213 216 218 218 219 219 219 220
205 205 205 205 205 206 207 208 207 205 205 205 205 205 205 208 209 209 208 208 210 211 211 211 210 211 212 212 212 215 216 216 215 213 213 215 217 218 218 219 221 222
205 205 204 205 205 206 207 208 207 207 205 204 204 205 205 205 207 208 209 208 209 211 212 211 211 210 211 211 211 213 215 216 216 214 214 215 217 218 218 218 220 223
205 204 204 204 204 205 207 207 207 207 205 204 204 205 205 206 206 207 209 209 209 209 210 211 211 211 211 211 212 213 214 215 216 216 216 216 217 219 219 218 218 222
206 205 204 204 204 205 206 206 207 206 206 206 206 205 206 207 208 209 209 209 210 210 210 210 211 212 212 212 214 214 214 215 216 217 218 219 219 220 220 219 218 220
207 206 206 205 205 206 206 206 206 206 207 207 207 206 206 207 208 209 210 210 210 211 211 210 211 213 213 214 215 216 217 217 217 217 219 221 222 222 221 220 220 221
207 206 206 207 207 207 207 206 206 206 207 207 207 207 207 208 208 208 210 211 212 213 213 213 213 213 214 215 215 216 218 219 219 219 220 222 224 224 223 222 222 223
206 206 206 207 207 208 208 207 206 206 207 207 208 207 207 208 209 209 210 212 214 214 214 215 215 215 215 216 216 216 217 218 219 220 221 222 224 226 226 225 224 225
207 207 207 207 207 208 208 208 207 207 208 208 208 208 208 209 209 210 211 213 215 216 216 216 216 216 216 216 217 217 217 218 220 221 221 222 224 226 228 227 226 226
207 207 207 207 206 207 208 208 209 208 209 209 209 209 210 210 211 212 212 213 214 216 217 217 216 217 217 217 217 217 217 218 219 221 222 222 223 226 228 229 228 228
207 207 206 206 205 206 207 208 208 208 209 210 210 211 211 212 212 213 213 214 214 215 216 217 217 218 219 219 219 218 218 218 218 220 222 223 223 225 226 228 229 230
205 206 206 205 205 205 206 206 207 208 208 210 210 211 211 212 212 213 214 214 215 216 216 217 219 220 220 221 222 221 220 218 219 220 222 223 224 224 226 228 229 230
203 204 204 205 205 205 206 206 206 207 208 209 210 210 210 211 211 212 213 214 215 216 217 218 220 222 222 223 223 223 223 221 221 222 222 224 225 225 227 228 229 230
201 202 203 204 205 206 207 206 206 207 208 208 209 210 209 210 211 212 212 213 214 215 217 220 222 223 223 224 225 225 225 224 224 224 224 225 226 227 228 229 229 231
199 201 202 204 205 206 206 206 206 207 208 209 209 209 209 210 211 211 212 213 214 215 217 220 223 224 224 225 226 227 227 226 226 227 228 228 229 230 230 231 231 231
198 199 201 203 205 205 206 207 208 208 209 209 208 208 209 210 211 211 213 214 215 216 217 219 222 225 226 226 227 227 228 228 228 228 230 232 233 233 233 234 234 234
197 198 200 201 202 203 205 208 209 209 209 209 209 209 210 211 212 213 214 215 216 218 219 221 223 225 226 228 228 228 228 228 228 228 231 233 235 236 236 237 237 237
196 197 198 200 200 202 204 207 209 210 210 209 209 210 211 212 213 215 216 217 218 219 221 223 226 227 227 228 229 229 228 227 226 228 231 234 236 237 238 240 240 239
196 197 198 198 199 201 204 206 208 210 210 210 210 211 212 214 215 216 218 219 220 222 223 226 228 230 231 231 230 229 228 227 226 228 231 235 237 239 240 241 242 242
196 197 198 198 200 202 204 205 207 209 210 211 211 213 215 216 217 218 220 221 223 225 227 229 231 233 234 235 234 231 229 229 227 228 231 234 237 239 241 243 245 246
196 197 198 199 200 202 204 205 206 208 209 210 212 214 216 218 219 220 221 223 225 227 230 232 234 236 237 238 239 237 234 231 228 228 230 233 236 239 242 244 246 248